| time (UTC) | temp F | wind direction | speed MPH | gust MPH | rain 1hr in | rain 24hr in | rain mn in | humidity % | barometer mb |
| 20260505051552 | 45 | 0.0 | 0.0 | 0.00 | 0.14 | 0.14 | 89 | 1005.5 | |
| 20260505041549 | 45 | 0.0 | 0.0 | 0.00 | 0.14 | 0.14 | 87 | 1005.6 | |
| 20260505040039 | 46 | 0.0 | 0.0 | 0.01 | 0.14 | 0.14 | 85 | 1005.5 | |
| 20260505034530 | 46 | 0.0 | 0.0 | 0.08 | 0.14 | 0.14 | 86 | 1005.5 | |
| 20260505033022 | 47 | 0.0 | 0.0 | 0.14 | 0.14 | 0.14 | 86 | 1005.5 | |
| 20260505031532 | 48 | 0.0 | 0.0 | 0.14 | 0.14 | 0.14 | 85 | 1005.6 | |
| 20260505030013 | 49 | 0.0 | 0.0 | 0.12 | 0.12 | 0.12 | 83 | 1005.4 | |
| 20260505024509 | 50 | 0.0 | 0.0 | 0.05 | 0.05 | 0.05 | 81 | 1005.0 | |
| 20260505023009 | 52 | 0.0 | 0.0 | 0.00 | 0.00 | 0.00 | 77 | 1004.9 | |
| 20260505021601 | 52 | 0.0 | 0.0 | 0.00 | 0.00 | 0.00 | 75 | 1004.3 | |
| 20260505020055 | 53 | 0.0 | 0.0 | 0.00 | 0.00 | 0.00 | 71 | 1004.1 | |
| 20260505014606 | 53 | 0.0 | 0.0 | 0.00 | 0.00 | 0.00 | 67 | 1003.9 | |
| 20260505013050 | 54 | 0.0 | 0.0 | 0.00 | 0.00 | 0.00 | 63 | 1003.6 | |
| 20260505011553 | 56 | 0.0 | 0.0 | 0.00 | 0.00 | 0.00 | 59 | 1003.6 | |
| 20260505010039 | 58 | 0.0 | 0.0 | 0.00 | 0.00 | 0.00 | 53 | 1003.3 | |
| 20260505004539 | 59 | 0.0 | 0.0 | 0.00 | 0.00 | 0.00 | 53 | 1003.1 | |
| 20260505003029 | 59 | 0.0 | 0.0 | 0.00 | 0.00 | 0.00 | 53 | 1002.9 | |
| 20260505001528 | 59 | 0.0 | 0.0 | 0.00 | 0.00 | 0.00 | 54 | 1002.9 | |
| 20260505000020 | 58 | 0.0 | 0.0 | 0.00 | 0.00 | 0.00 | 58 | 1002.7 | |
| 20260504234516 | 58 | 0.0 | 0.0 | 0.00 | 0.00 | 0.00 | 54 | 1002.6 | |
| 20260504233012 | 58 | 0.0 | 0.0 | 0.00 | 0.00 | 0.00 | 51 | 1002.5 | |
| 20260504231507 | 58 | 0.0 | 0.0 | 0.00 | 0.00 | 0.00 | 55 | 1002.3 | |
| 20260504230003 | 59 | 0.0 | 0.0 | 0.00 | 0.00 | 0.00 | 60 | 1002.2 | |
| 20260504224609 | 60 | 0.0 | 0.0 | 0.00 | 0.00 | 0.00 | 57 | 1002.5 | |
| 20260504223124 | 61 | 0.0 | 0.0 | 0.00 | 0.00 | 0.00 | 42 | 1002.7 | |
| 20260504221550 | 62 | 0.0 | 0.0 | 0.00 | 0.00 | 0.00 | 44 | 1002.5 | |
| 20260504220046 | 62 | 0.0 | 0.0 | 0.00 | 0.00 | 0.00 | 42 | 1001.4 | |
| 20260504214542 | 63 | 0.0 | 0.0 | 0.00 | 0.00 | 0.00 | 41 | 1000.7 | |
| 20260504213050 | 63 | 0.0 | 0.0 | 0.00 | 0.00 | 0.00 | 39 | 1001.2 | |
| 20260504211534 | 64 | 0.0 | 0.0 | 0.00 | 0.00 | 0.00 | 38 | 1000.9 | |
| 20260504210028 | 65 | 0.0 | 0.0 | 0.00 | 0.00 | 0.00 | 39 | 1000.9 | |
| 20260504204536 | 68 | 0.0 | 0.0 | 0.00 | 0.00 | 0.00 | 29 | 1001.1 | |
| 20260504203023 | 69 | 0.0 | 0.0 | 0.00 | 0.00 | 0.00 | 27 | 1000.4 | |
| 20260504201515 | 69 | 0.0 | 0.0 | 0.00 | 0.00 | 0.00 | 27 | 1000.2 | |
| 20260504200126 | 70 | 0.0 | 0.0 | 0.00 | 0.00 | 0.00 | 26 | 1000.2 | |
| 20260504194507 | 72 | 0.0 | 0.0 | 0.00 | 0.00 | 0.00 | 23 | 1000.1 | |
| 20260504193002 | 74 | 0.0 | 0.0 | 0.00 | 0.00 | 0.00 | 20 | 1000.0 | |
| 20260504191602 | 74 | 0.0 | 0.0 | 0.00 | 0.00 | 0.00 | 21 | 999.9 | |
| 20260504190054 | 75 | 0.0 | 0.0 | 0.00 | 0.00 | 0.00 | 20 | 999.9 | |
| 20260504184550 | 76 | 0.0 | 0.0 | 0.00 | 0.00 | 0.00 | 19 | 1000.0 | |
| 20260504183046 | 75 | 0.0 | 0.0 | 0.00 | 0.00 | 0.00 | 22 | 1000.3 | |
| 20260504181545 | 74 | 0.0 | 0.0 | 0.00 | 0.00 | 0.00 | 23 | 1000.6 | |
| 20260504180037 | 72 | 0.0 | 0.0 | 0.00 | 0.00 | 0.00 | 25 | 1001.2 | |
| 20260504174532 | 70 | 0.0 | 0.0 | 0.00 | 0.00 | 0.00 | 27 | 1001.5 | |
| 20260504173029 | 68 | 0.0 | 0.0 | 0.00 | 0.00 | 0.00 | 29 | 1001.7 | |
| 20260504171523 | 65 | 0.0 | 0.0 | 0.00 | 0.00 | 0.00 | 30 | 1001.9 | |
| 20260504160109 | 62 | 0.0 | 0.0 | 0.00 | 0.00 | 0.00 | 32 | 1001.9 | |
| 20260504090107 | 43 | 0.0 | 0.0 | 0.00 | 0.00 | 0.00 | 51 | 1001.8 | |
| 20260504081545 | 45 | 0.0 | 0.0 | 0.00 | 0.00 | 0.00 | 47 | 1002.3 |